This is the latest recevied weather packets stored in our database for station/object M7PDA-1. If no packets are shown the sender has not sent any weather packets the latest 1 day(s).
| Time | Temp. | Humidity | Pressure | Rain* | Wind** | Luminosity | Snow |
|---|---|---|---|---|---|---|---|
| 1778051438 | 8.33° C | 64% | 1017.8 hPa | - | - | - | - |
| 1778050538 | 7.78° C | 65% | 1017.7 hPa | - | - | - | - |
| 1778049637 | 7.22° C | 67% | 1017.7 hPa | - | - | - | - |
| 1778048736 | 6.67° C | 67% | 1017.7 hPa | - | - | - | - |
| 1778046034 | 6.11° C | 70% | 1017.5 hPa | - | - | - | - |
| 1778045133 | 6.11° C | 71% | 1017.4 hPa | - | - | - | - |
| 1778044232 | 5.56° C | 72% | 1017.3 hPa | - | - | - | - |
| 1778042431 | 5.56° C | 73% | 1017.3 hPa | - | - | - | - |
| 1778041530 | 6.11° C | 73% | 1017.2 hPa | - | - | - | - |
| 1778040629 | 6.11° C | 72% | 1017.3 hPa | - | - | - | - |
| 1778039728 | 6.11° C | 72% | 1017.4 hPa | - | - | - | - |
| 1778037927 | 6.11° C | 72% | 1017.5 hPa | - | - | - | - |
| 1778037026 | 6.11° C | 72% | 1017.5 hPa | - | - | - | - |
| 1778036125 | 6.11° C | 72% | 1017.5 hPa | - | - | - | - |
| 1778035224 | 6.11° C | 72% | 1017.4 hPa | - | - | - | - |
| 1778034323 | 6.67° C | 72% | 1017.4 hPa | - | - | - | - |
| 1778033422 | 6.67° C | 72% | 1017.4 hPa | - | - | - | - |
| 1778031621 | 6.67° C | 71% | 1017.4 hPa | - | - | - | - |
| 1778030720 | 6.67° C | 71% | 1017.5 hPa | - | - | - | - |
| 1778028018 | 7.22° C | 70% | 1017.4 hPa | - | - | - | - |
| 1778027117 | 7.22° C | 71% | 1017.4 hPa | - | - | - | - |
* Rain since midnight (hover to see other rain measurements)
** Current wind speed in m/s (hover to see current wind gust speed)